STARLINK-32020, 60201

Orbit data source: Space-Track

STARLINK-32020, 60201 is a payload satellite owned by SpaceX/Seattle (US) in LEO that was launched on Wed, 03 Jul 2024 UTC via an FALCON 9 launch vehicle from the Air Force Eastern Test Range (AFETR). Payload-class satellites include a variety of spacecraft equipped with specific instruments for various scientific and technological missions. These include communications satellites like Starlink; space stations such as the ISS; scientific satellites like the Hubble; Earth observation satellites from companies like Planet Labs, Umbra, and HawkEye 360; GPS; miniature CubeSats for education and research; and military/defense satellites.

Loading next visibility...
Identifier
60201, 2024-124U
Orbit
LEO
Country
Flag of USUS
Related business
Manufacturer
SpaceX/Seattle
Mission
Operational Commercial Communications
Bus & Motor
STARLINK V2M, Unknown motor
Mass
730 kg wet, ~700 kg dry
Launch date (UTC)
2024-07-03 (1 year ago)
Launch vehicle
FALCON 9
Launch site
Air Force Eastern Test Range (AFETR)
Object type
Payload
Rocket body
Debris
Shape & HBR
Box + 2 Pan, 14.5 m
Radar Cross Section
36.964 m², Large (>1 m²)

Expand to show TLE details & history
Last TLE update: 1 day ago

TLE from 1 day ago
0 STARLINK-32020
1 60201U 24124U   25260.63469811 -.00000582  00000-0 -75415-5 0  9999
2 60201  53.1620  46.0705 0000852  86.7337 273.3762 15.30193784 67801
Epoch: 2025-09-17T15:13Z
TLE epoch observation values (Epoch: 2025-09-17T15:13:57.916Z)
Latitude
0.00003°
Longitude
-179.22862°
Altitude
476.099 km
Speed
7.629 km/s
True Right ascension
03h 04m 16s
True Declination
0° 00' 00"
Sunlit
Object was in full shadow at epoch
Visualization orbit readout
Latitude
Unknown
Longitude
Unknown
Altitude
Unknown
Speed
Unknown
Apparent Right ascension
Unknown
Apparent Declination
Unknown
Sunlit
N/A
Visualization observer readout
Local Sidereal Time
18:04:14
Azimuth
Unknown
Elevation
Unknown
Doppler factor
Unknown
Orbital elements
Apogee altitude
476.074 km
Perigee altitude
474.906 km
Semi-major axis
6,853.627 km
Eccentricity
0.00009
Inclination
53.162°
RAAN
46.0705°
Arg. of periapsis
86.7337°
True anomaly
273.36645°
Mean anomaly
273.3762°
Eccentric anomaly
273.37133°
Mean motion
3.82527 °/min
Orbital period
94.11 mins
BSTAR
-0.0000075415
Loading maneuver chart data...
Computing Atmospheric mass density...
Loading historical data...
Loading historical data...
Loading historical data...
Loading historical data...
Loading historical data...
Loading historical data...
Loading historical data...

Documentation

Showing up to 5 results
|